CAPE
8 4 0 4 9 3 0 0 2 0 0 0 0 0 0 0 0 0 0 0 0 0 0 0 0 0 0 0 0 0 0 0 0 0 0 0 0 0 0 0 0 0 0 0
15 2 0 0 0 9 0 0 0 12 0 0 0 0 0 0 0 0 0 0 0 0 0 0 0 0 0 0 0 0 0 0 0 0 0 0 0 0 0 0 0 0 0 0
28 14 2 5 1 1 1 5 0 8 2 0 0 0 0 0 0 0 0 0 0 0 0 0 0 0 0 0 0 0 0 0 0 0 0 0 0 0 0 0 0 0 0 0
16 25 17 7 2 3 14 0 0 2 2 0 0 0 0 0 0 0 0 0 0 0 0 0 0 0 0 0 0 0 0 0 0 0 0 0 0 0 0 0 0 0 0 0
6 10 37 16 8 9 3 1 0 4 0 0 0 0 0 0 0 0 0 0 0 0 0 0 0 0 0 0 0 0 0 0 0 0 0 0 0 0 0 0 0 0 0 0
16 6 9 25 16 11 0 2 0 0 0 0 0 0 0 0 0 0 0 0 0 0 0 0 0 0 0 0 0 0 0 0 0 0 0 0 0 0 0 0 0 0 0 0
8 15 6 12 31 22 0 2 2 5 0 1 0 0 0 0 0 0 0 0 0 0 0 0 0 0 0 0 0 0 0 0 0 0 0 0 0 0 0 0 0 0 0 0
7 7 16 9 26 45 3 1 0 0 0 0 0 0 0 0 0 0 0 0 0 0 0 0 0 0 0 0 0 0 0 0 0 0 0 0 0 0 0 0 0 0 0 0
13 2 3 11 10 26 11 1 2 0 0 0 0 0 0 0 0 0 0 0 0 0 0 0 0 0 0 0 0 0 0 0 0 0 0 0 0 0 0 0 0 0 0 0
22 9 4 5 10 16 22 3 0 0 2 0 0 0 0 0 0 0 0 0 0 0 0 0 0 0 0 0 0 0 0 0 0 0 0 0 0 0 0 0 0 0 0 0
32 17 5 9 6 18 17 1 1 0 0 0 0 0 0 0 0 0 0 5 2 0 0 0 0 0 0 0 0 0 0 0 0 0 0 0 0 0 0 0 0 0 0 0
36 29 13 8 3 11 28 11 5 2 0 0 0 0 0 0 0 0 0 0 0 0 0 0 0 0 0 0 0 0 0 0 0 0 0 0 0 0 0 0 0 0 0 0
66 44 35 5 5 12 22 4 7 1 0 0 0 0 0 0 0 0 0 7 0 0 0 0 0 0 0 0 0 0 0 0 0 0 0 0 0 0 0 0 0 0 0 0
89 66 46 10 6 18 19 11 4 3 1 0 0 0 0 0 0 0 0 0 0 0 0 0 0 0 0 0 0 0 0 0 0 0 0 0 0 0 0 0 0 0 0 0
59 50 79 29 5 12 14 9 17 1 0 0 0 0 0 0 0 0 4 0 0 3 0 1 5 4 1 0 0 0 0 0 0 0 0 0 0 0 0 0 0 0 0 0
49 54 54 44 10 10 8 13 15 25 10 1 0 0 0 1 2 2 3 32 5 0 9 0 0 0 1 0 0 0 0 0 0 0 0 0 0 0 0 0 0 0 0 0
58 66 92 86 7 6 2 0 5 2 1 0 0 0 0 1 3 1 27 50 36 0 1 5 0 0 0 0 0 0 0 0 0 0 0 0 0 0 0 0 0 0 0 0
51 66 132 12 11 24 13 0 75 9 5 4 0 0 15 9 3 0 17 27 3 0 0 0 0 0 0 0 0 0 0 0 0 0 0 0 0 0 0 0 0 0 0 0
55 141 8 20 19 0 0 4 50 1 0 0 0 0 4 2 0 0 1 9 8 0 0 0 0 0 0 0 0 0 0 0 0 0 0 0 0 0 0 0 0 0 0 0
27 1 12 5 5 22 45 11 12 10 0 0 0 0 0 0 0 2 0 1 0 0 0 0 0 0 0 0 0 0 0 0 0 0 0 0 0 0 0 0 0 0 0 0
0 15 9 8 1 6 8 14 5 6 0 0 0 0 15 0 0 0 0 0 1 0 0 0 0 0 0 0 0 0 0 0 0 0 0 0 0 0 0 0 0 0 0 0
0 1 5 4 2 0 0 0 19 0 3 0 0 0 1 0 0 0 0 0 0 0 0 0 0 0 0 0 0 0 0 0 0 0 0 0 0 0 0 0 0 0 0 0
3 5 0 0 2 1 0 0 0 0 2 12 0 0 0 0 0 0 0 0 0 0 0 0 0 0 0 0 0 0 0 0 0 0 0 0 0 0 0 0 0 0 0 0
0 0 8 0 0 0 0 0 0 0 0 16 0 0 0 0 0 0 0 0 0 0 0 0 0 0 0 0 0 0 0 0 0 0 0 0 0 0 0 0 0 0 0 0
0 0 0 0 0 0 0 0 0 0 3 29 8 0 0 0 0 0 0 0 0 0 0 0 0 0 0 0 0 0 0 0 0 0 0 0 0 0 0 0 0 0 0 0
0 1 0 0 0 0 0 2 5 0 11 47 49 10 0 0 0 0 0 0 0 0 0 0 0 0 0 0 0 0 0 0 0 0 0 0 0 0 0 0 0 0 0 0
2 0 0 0 0 0 0 22 16 13 37 22 45 21 0 0 0 0 0 0 0 0 0 0 0 0 0 0 0 0 0 0 0 0 0 0 0 0 0 0 0 0 0 0
CIN
-0 -0 -0 -0 -2 -5 -0 -0 -0 -4 -0 -0 -0 -0 -0 -0 -0 -0 -0 -0 -0 -0 -0 -0 -0 -0 -0 -0 -0 -0 -0 -0 -0 -0 -0 -0 -0 -0 -0 -0 -0 -0 -0 -0
-0 -0 -0 -0 -0 -1 -0 -0 -0 -8 -0 -0 -0 -0 -0 -0 -0 -0 -0 -0 -0 -0 -0 -0 -0 -0 -0 -0 -0 -0 -0 -0 -0 -0 -0 -0 -0 -0 -0 -0 -0 -0 -0 -0
-0 -0 -0 -0 -0 -0 -1 -1 -0 -4 -6 -0 -0 -0 -0 -0 -0 -0 -0 -0 -0 -0 -0 -0 -0 -0 -0 -0 -0 -0 -0 -0 -0 -0 -0 -0 -0 -0 -0 -0 -0 -0 -0 -0
-0 -1 -0 -0 -0 -0 -0 -0 -0 -4 -1 -0 -0 -0 -0 -0 -0 -0 -0 -0 -0 -0 -0 -0 -0 -0 -0 -0 -0 -0 -0 -0 -0 -0 -0 -0 -0 -0 -0 -0 -0 -0 -0 -0
-0 -0 -0 -0 -0 -0 -0 -0 -0 -5 -0 -0 -0 -0 -0 -0 -0 -0 -0 -0 -0 -0 -0 -0 -0 -0 -0 -0 -0 -0 -0 -0 -0 -0 -0 -0 -0 -0 -0 -0 -0 -0 -0 -0
-0 -0 -0 -0 -0 -0 -0 -0 -0 -0 -0 -0 -0 -0 -0 -0 -0 -0 -0 -0 -0 -0 -0 -0 -0 -0 -0 -0 -0 -0 -0 -0 -0 -0 -0 -0 -0 -0 -0 -0 -0 -0 -0 -0
-0 -0 -0 -0 -0 -0 -0 -0 -0 -1 -0 -1 -0 -0 -0 -0 -0 -0 -0 -0 -0 -0 -0 -0 -0 -0 -0 -0 -0 -0 -0 -0 -0 -0 -0 -0 -0 -0 -0 -0 -0 -0 -0 -0
-0 -0 -0 -0 -0 -0 -1 -0 -0 -0 -0 -0 -0 -0 -0 -0 -0 -0 -0 -0 -0 -0 -0 -0 -0 -0 -0 -0 -0 -0 -0 -0 -0 -0 -0 -0 -0 -0 -0 -0 -0 -0 -0 -0
-0 -1 -0 -0 -0 -1 -4 -0 -0 -0 -0 -0 -0 -0 -0 -0 -0 -0 -0 -0 -0 -0 -0 -0 -0 -0 -0 -0 -0 -0 -0 -0 -0 -0 -0 -0 -0 -0 -0 -0 -0 -0 -0 -0
-1 -0 -0 -0 -0 -0 -0 -4 -0 -0 -0 -0 -0 -0 -0 -0 -0 -0 -0 -0 -4 -0 -0 -0 -0 -0 -0 -0 -0 -0 -0 -0 -0 -0 -0 -0 -0 -0 -0 -0 -0 -0 -0 -0
-1 -1 -0 -0 -0 -0 -3 -0 -0 -0 -0 -0 -0 -0 -0 -0 -0 -0 -0 -11 -17 -0 -0 -0 -0 -0 -0 -0 -0 -0 -0 -0 -0 -1 -0 -0 -0 -0 -0 -0 -0 -0 -0 -0
-0 -0 -1 -0 -1 -0 -1 -0 -0 -0 -0 -0 -0 -0 -0 -0 -0 -0 -2 -0 -0 -0 -0 -0 -0 -0 -0 -0 -0 -0 -0 -0 -0 -0 -0 -0 -0 -0 -0 -0 -0 -0 -0 -0
-1 -0 -2 -0 -0 -0 -1 -2 -1 -0 -0 -0 -0 -0 -0 -0 -0 -0 -1 -23 -0 -0 -0 -0 -0 -0 -0 -0 -0 -0 -0 -0 -0 -0 -0 -0 -0 -0 -0 -0 -0 -0 -0 -0
-1 -0 -0 -0 -0 -0 -1 -2 -1 -1 -0 -0 -0 -0 -0 -0 -14 -0 -0 -27 -4 -0 -0 -0 -0 -0 -0 -0 -0 -0 -0 -0 -0 -0 -0 -0 -0 -0 -0 -0 -0 -0 -0 -0
-0 -1 -0 -0 -1 -0 -2 -6 -2 -1 -0 -0 -0 -0 -0 -0 -15 -0 -20 -0 -0 -13 -0 -5 -10 -21 -10 -0 -0 -0 -0 -0 -0 -0 -0 -0 -0 -0 -0 -0 -0 -0 -0 -0
-2 -4 -1 -0 -0 -1 -4 -1 -4 -0 -3 -5 -0 -0 -0 -23 -28 -51 -24 -26 -47 -1 -2 -0 -0 -0 -13 -0 -0 -0 -0 -0 -0 -0 -0 -0 -0 -0 -0 -0 -0 -0 -0 -0
-0 -0 -0 -0 -0 -5 -0 -3 -6 -0 -0 -0 -0 -0 -0 -7 -18 -20 -6 -33 -16 -1 -0 -7 -0 -0 -0 -0 -0 -0 -0 -0 -0 -0 -0 -0 -0 -0 -0 -0 -0 -0 -0 -0
-0 -0 -0 -0 -0 -2 -3 -0 -3 -3 -0 -1 -0 -0 -19 -7 -3 -8 -14 -23 -28 -0 -0 -0 -0 -0 -0 -0 -0 -0 -0 -0 -0 -0 -0 -0 -0 -0 -0 -0 -0 -0 -0 -0
-0 -0 -2 -1 -3 -0 -0 -23 -8 -0 -0 -0 -0 -0 -22 -4 -0 -0 -6 -13 -24 -0 -0 -0 -0 -0 -0 -0 -0 -0 -0 -0 -0 -0 -0 -0 -0 -0 -0 -0 -0 -0 -0 -0
-3 -1 -1 -1 -1 -3 -2 -3 -1 -4 -0 -0 -0 -0 -0 -3 -3 -5 -0 -9 -0 -0 -0 -0 -0 -0 -0 -0 -0 -0 -0 -0 -0 -0 -0 -0 -0 -0 -0 -0 -0 -0 -0 -0
-1 -1 -4 -9 -4 -5 -3 -10 -7 -9 -5 -0 -0 -0 -2 -0 -1 -0 -0 -0 -11 -0 -0 -0 -0 -0 -0 -0 -0 -0 -0 -0 -0 -0 -0 -0 -0 -0 -0 -0 -0 -0 -0 -0
-0 -2 -13 -9 -11 -0 -0 -0 -27 -2 -6 -23 -0 -0 -22 -1 -0 -3 -0 -0 -0 -0 -0 -0 -0 -0 -0 -0 -0 -0 -0 -0 -0 -0 -0 -0 -0 -0 -0 -0 -0 -0 -0 -0
-6 -5 -0 -4 -4 -3 -0 -0 -0 -15 -12 -14 -0 -0 -7 -0 -0 -0 -0 -0 -0 -0 -0 -0 -0 -0 -0 -0 -0 -0 -0 -0 -0 -0 -0 -0 -0 -0 -0 -0 -0 -0 -0 -0
-0 -0 -8 -0 -0 -0 -0 -0 -0 -0 -0 -15 -0 -0 -0 -0 -0 -0 -0 -0 -0 -0 -0 -0 -0 -0 -0 -0 -0 -0 -0 -0 -0 -0 -0 -0 -0 -0 -0 -0 -0 -0 -0 -0
-0 -0 -0 -0 -0 -0 -0 -0 -0 -0 -55 -10 -73 -0 -0 -0 -0 -4 -5 -0 -0 -0 -0 -0 -0 -0 -0 -0 -0 -0 -0 -0 -0 -0 -0 -0 -0 -0 -0 -0 -0 -0 -0 -0
-0 -9 -0 -4 -0 -0 -0 -6 -0 -0 -11 -4 -59 -19 -0 -0 -0 -2 -0 -0 -0 -0 -0 -0 -0 -0 -0 -0 -0 -0 -0 -0 -0 -0 -0 -0 -0 -0 -0 -0 -0 -0 -0 -0
-4 -0 -0 -0 -0 -0 -1 -9 -1 -3 -19 -38 -23 -39 -66 -0 -0 -0 -0 -0 -0 -0 -0 -0 -0 -0 -0 -0 -0 -0 -0 -0 -0 -0 -0 -0 -0 -0 -0 -0 -0 -0 -0 -0
Wind_Speed
30 30 28 28 25 20 19 24 28 16 12 25 26 27 26 26 32 27 23 21 20 18 13 12 13 14 11 9 6 10 12 11 10 10 13 13 13 13 14 15 14 15 16 14
31 29 29 27 27 22 20 28 28 20 21 33 33 33 33 30 28 27 22 22 21 19 19 15 15 13 9 8 12 10 8 10 9 12 13 10 10 10 12 13 14 14 15 15
30 30 29 28 27 26 24 27 31 29 28 30 31 32 36 34 29 34 28 24 24 22 20 15 15 14 13 12 14 12 13 12 11 8 12 10 10 8 9 10 12 13 11 13
29 28 27 26 27 26 26 29 31 29 32 33 34 32 31 36 32 31 26 28 28 21 21 17 17 14 10 14 14 15 14 13 14 14 14 11 9 6 6 5 7 11 13 12
28 28 28 26 25 23 29 31 30 31 34 31 32 38 36 40 34 30 31 28 28 23 24 21 18 16 18 18 15 13 16 16 15 16 15 13 6 2 3 4 4 5 5 13
29 28 29 29 23 22 29 31 31 30 36 38 35 37 40 35 37 35 38 31 27 30 27 19 20 19 13 13 12 13 13 16 15 16 13 14 15 9 8 6 6 4 4 7
30 30 30 30 29 25 26 29 32 35 40 37 40 37 38 47 39 39 33 33 32 25 13 13 16 14 18 12 11 10 12 14 16 16 16 17 14 11 6 7 5 6 8 9
31 32 31 31 32 29 30 29 30 38 43 42 39 39 41 38 43 43 37 33 29 17 19 21 21 23 21 23 19 13 10 13 16 15 15 25 21 6 5 5 6 7 6 6
33 32 33 33 34 32 29 32 26 32 41 49 41 41 39 40 38 41 40 33 25 22 24 23 25 24 25 25 23 21 12 11 17 16 17 17 16 9 6 6 4 4 5 5
33 32 31 33 35 35 32 31 28 32 41 42 39 45 40 35 35 37 36 32 29 27 28 29 27 28 22 24 22 20 18 18 16 17 20 23 23 6 6 6 11 4 6 5
32 32 32 31 34 36 34 33 30 34 39 43 40 41 43 39 35 38 31 29 32 31 33 32 27 27 26 24 22 20 20 18 20 18 20 26 11 1 3 9 12 6 7 7
20 26 30 30 32 34 34 37 30 30 40 40 38 45 45 44 29 32 35 37 31 29 31 30 28 28 27 25 28 19 23 19 18 16 19 17 14 8 6 6 7 9 7 7
19 19 22 27 31 34 34 34 32 31 37 45 47 51 47 40 39 29 37 35 30 31 27 27 30 31 28 29 29 22 26 17 22 18 21 20 19 3 1 5 5 6 6 6
16 18 20 20 24 32 33 35 34 34 34 40 44 36 45 37 31 30 31 35 29 29 29 31 33 34 29 32 28 28 24 18 22 23 22 12 14 5 2 1 3 3 4 5
21 16 19 20 19 24 30 33 34 36 37 36 41 39 42 36 32 31 30 31 34 31 31 34 35 31 29 29 30 34 24 23 20 24 19 15 12 7 3 3 2 1 3 5
23 18 19 19 19 20 25 33 35 37 35 37 38 32 38 36 34 33 34 33 35 35 32 34 32 29 30 33 37 31 28 24 18 21 15 15 14 7 7 6 5 2 0 2
17 15 17 18 19 20 26 27 28 31 32 36 41 35 38 36 31 32 33 31 30 34 35 33 32 32 32 37 41 28 32 30 23 20 16 17 12 13 8 6 5 4 2 1
15 15 16 18 17 21 30 34 21 20 32 35 40 35 30 33 36 37 30 34 31 31 31 31 33 31 32 43 39 36 33 29 28 26 20 18 15 11 9 9 10 5 4 2
16 15 15 16 21 24 29 25 22 21 29 38 42 42 33 31 35 32 31 32 37 29 33 33 30 37 43 36 32 31 35 34 28 24 22 20 18 14 10 9 11 7 4 2
18 17 19 22 26 9 10 20 30 33 32 34 43 40 33 32 33 33 33 30 37 42 40 30 43 50 41 34 29 29 30 35 35 32 26 22 19 17 14 11 10 6 5 3
18 15 16 15 10 10 18 27 31 29 34 37 43 43 35 30 34 32 29 31 32 43 41 42 47 57 51 41 34 29 30 30 33 35 33 26 22 19 13 11 9 6 5 4
18 12 10 7 10 19 26 29 29 32 37 37 44 37 33 25 19 26 25 29 28 35 28 36 50 49 36 35 39 52 43 32 31 31 32 24 19 16 13 10 8 6 5 3
14 14 18 20 16 24 30 34 38 34 33 31 43 33 29 24 21 25 26 30 33 23 33 41 44 35 36 34 30 22 39 32 29 29 24 17 16 14 11 9 6 4 3 3
7 13 18 25 20 24 25 26 43 41 40 38 44 37 27 25 24 22 29 27 26 35 42 50 37 32 33 33 32 28 28 25 25 24 20 17 15 13 10 8 7 5 4 5
12 18 26 27 33 24 28 32 32 38 44 42 44 33 22 21 23 23 23 28 33 35 50 39 34 33 34 33 27 22 21 19 20 18 16 14 12 10 9 7 6 4 4 6
30 32 29 29 28 36 38 40 43 48 51 38 37 32 27 25 22 27 27 28 32 39 36 36 34 32 32 28 23 21 18 15 15 14 13 11 10 10 8 6 5 4 5 7
29 30 32 30 28 29 33 40 43 51 36 35 32 29 28 17 26 26 25 31 31 30 29 29 29 25 22 19 18 16 12 13 12 11 10 9 8 7 7 7 6 5 6 7
Wind_Direction
281 279 280 281 273 270 275 270 260 262 250 250 253 249 255 260 256 263 267 270 266 268 266 256 263 278 293 294 317 305 302 330 357 11 19 26 32 30 33 20 25 27 31 39
281 278 275 276 277 258 266 263 259 261 254 251 251 252 251 256 257 260 263 265 265 270 271 261 264 273 292 293 283 296 307 321 342 350 2 37 36 51 41 45 36 34 31 36
284 278 274 272 270 266 254 263 256 254 252 255 252 252 249 249 258 253 260 262 260 262 263 265 261 265 273 278 282 292 294 299 325 350 358 33 27 70 74 58 31 37 42 44
286 280 275 270 268 266 250 257 256 254 253 251 251 252 255 248 250 253 258 254 253 253 257 257 260 261 263 274 279 281 289 295 302 317 337 1 18 50 101 78 89 38 40 40
285 280 274 271 265 266 257 251 254 255 254 253 251 247 250 247 248 251 249 253 250 252 254 257 251 254 261 266 269 276 282 287 300 306 317 338 5 108 150 143 130 143 116 24
281 279 273 267 264 259 259 252 258 260 253 249 249 248 246 251 248 249 248 251 252 249 253 259 262 264 254 269 267 265 276 284 295 306 325 331 331 199 185 170 163 93 86 69
282 276 272 266 260 255 259 263 251 254 252 248 247 250 248 244 247 248 250 247 248 254 256 255 267 275 259 268 261 263 270 279 290 300 311 313 337 9 125 165 146 143 57 83
280 275 270 265 258 255 255 260 259 250 251 248 249 248 247 249 244 246 248 248 251 242 247 247 251 256 257 259 264 258 263 274 287 295 298 299 307 349 26 117 162 149 144 85
275 274 268 263 256 253 253 255 260 257 252 246 246 248 247 247 245 244 245 251 243 236 243 244 246 247 252 257 262 260 259 268 279 292 298 306 317 356 39 61 9 124 123 108
272 270 268 263 256 251 252 255 252 258 253 250 245 242 246 250 247 245 243 242 237 234 239 242 247 251 251 253 252 247 250 262 265 281 291 296 287 355 26 356 2 103 133 109
269 265 264 263 257 251 249 254 250 252 254 253 250 248 243 246 247 243 240 236 235 234 236 241 247 253 248 254 255 253 250 254 266 275 286 288 291 299 303 347 357 49 99 89
258 261 260 258 256 252 249 250 250 255 252 254 255 251 250 245 250 247 243 236 236 237 238 245 248 254 253 251 256 251 256 259 268 267 285 301 305 297 338 13 31 40 65 67
251 248 250 254 253 251 249 248 246 253 255 254 253 245 245 248 245 251 242 241 237 241 244 245 252 254 256 249 254 253 260 252 271 276 280 283 292 234 325 2 21 33 33 43
243 245 238 240 251 250 250 247 244 246 254 250 250 253 242 246 242 243 247 243 248 241 243 247 250 251 256 253 256 254 258 247 261 272 284 284 287 273 225 326 21 38 47 23
209 225 227 230 236 249 253 251 247 241 242 249 248 259 242 241 236 238 243 241 239 243 241 245 247 253 258 258 257 257 251 258 253 272 273 281 282 267 258 220 214 34 52 22
203 213 230 231 228 240 252 252 250 241 240 247 247 255 242 235 235 236 240 240 238 244 247 246 250 255 254 257 254 259 260 265 255 270 280 267 280 272 274 278 207 225 309 18
208 213 209 218 219 232 241 257 255 234 231 241 241 252 238 229 230 235 237 238 245 242 246 246 247 250 251 253 253 261 258 262 268 263 268 279 276 273 260 271 241 218 226 296
204 206 202 208 222 242 249 249 265 228 231 236 236 245 234 218 226 231 237 234 239 243 245 244 246 250 253 252 253 253 261 264 263 262 266 271 279 282 281 286 299 246 229 312
176 180 188 218 238 245 248 245 241 242 238 232 230 230 239 218 225 230 233 234 237 244 243 241 243 245 247 255 256 256 255 258 266 268 267 263 265 271 270 274 284 267 242 231
154 171 219 237 240 259 236 239 237 239 244 240 230 229 243 220 219 228 227 237 238 239 244 249 248 247 252 256 260 260 259 257 257 262 264 265 266 264 264 266 283 247 238 250
161 159 232 244 162 229 244 241 232 235 233 232 227 226 234 226 221 222 231 236 241 242 245 244 249 247 248 252 255 258 259 261 260 261 264 265 265 267 259 255 261 246 248 260
155 190 218 222 246 249 243 237 237 234 231 226 215 219 224 221 223 227 236 236 238 243 240 245 246 246 252 252 253 245 253 259 262 264 263 260 255 261 253 251 246 256 265 269
186 223 235 244 250 243 238 233 229 229 225 221 206 213 220 218 231 234 237 239 240 245 245 247 249 253 253 255 257 250 256 254 253 259 264 254 249 253 246 241 233 225 260 291
216 232 236 236 248 252 247 231 229 228 224 214 204 211 229 214 226 239 236 242 244 243 245 243 249 255 254 257 260 260 260 251 244 246 252 250 246 251 239 220 213 224 253 293
234 229 231 234 230 255 242 229 230 225 221 212 204 215 217 217 235 242 242 240 245 247 243 251 254 255 256 256 260 262 257 247 236 233 238 240 233 229 232 224 221 229 264 296
198 191 203 190 213 213 220 214 197 208 202 201 202 216 222 233 239 238 245 242 249 251 255 256 258 256 256 257 257 259 257 233 225 226 225 226 222 215 212 226 241 257 282 300
201 194 197 194 200 217 223 202 188 183 193 193 205 220 231 236 242 243 247 250 256 262 262 260 254 251 253 256 256 254 234 216 211 215 220 215 215 207 208 225 261 281 299 311